 3  9 12 00 00 07 45 11.3  +81 21 35  0.06325  12.6  301.7/101.0 +43.1 179 -35.6

 3  9 13 00 00 07 50 38.3  +81 19 02  0.06397  12.6  296.5/102.8 +42.7 176 -46.4

 3  9 14 00 00 07 55 55.8  +81 16 09  0.06468  12.6  292.3/104.6 +41.8 174 -55.1

 3  9 15 00 00 08 01 04.6  +81 12 58  0.06539  12.7  288.6/106.1 +40.4 172 -59.7

 3  9 16 00 00 08 06 05.3  +81 09 30  0.06611  12.7  285.3/107.5 +38.7 170 -58.2

 3  9 17 00 00 08 10 58.3  +81 05 48  0.06683  12.7  282.2/108.7 +36.7 169 -51.5

 3  9 18 00 00 08 15 44.2  +81 01 55  0.06754  12.7  279.1/109.7 +34.5 169 -41.6

 3  9 19 00 00 08 20 23.1  +80 57 54  0.06826  12.7  275.7/110.5 +32.4 169 -30.2

 3  9 20 00 00 08 24 55.1  +80 53 46  0.06898  12.7  272.1/111.2 +30.3 170 -18.1

 3  9 21 00 00 08 29 20.3  +80 49 33  0.06970  12.8  267.9/111.8 +28.5 172 - 5.8

            .                   .          .       .     .   .             . 



 3 10 10 00 00 09 14 46.1  +79 55 37  0.07909  13.0  191.3/122.0 +40.9 190 -11.3

 3 10 11 00 00 09 17 19.7  +79 51 21  0.07981  13.0  187.9/123.3 +42.8 188 -23.6

 3 10 12 00 00 09 19 47.2  +79 47 01  0.08054  13.0  185.2/124.7 +44.1 185 -35.4

 3 10 13 00 00 09 22 09.3  +79 42 35  0.08126  13.0  183.2/125.9 +44.8 181 -46.1

 3 10 14 00 00 09 24 26.8  +79 38 05  0.08199  13.0  181.7/127.0 +44.7 177 -54.8

 3 10 15 00 00 09 26 40.3  +79 33 30  0.08272  13.1  180.7/127.9 +43.9 174 -59.3

 3 10 16 00 00 09 28 50.6  +79 28 51  0.08345  13.1  179.8/128.5 +42.3 171 -57.8

 3 10 17 00 00 09 30 58.0  +79 24 09  0.08418  13.1  179.1/129.0 +40.3 169 -51.1

 3 10 18 00 00 09 33 03.2  +79 19 26  0.08491  13.1  178.3/129.3 +37.8 167 -41.3

 3 10 19 00 00 09 35 06.5  +79 14 42  0.08564  13.1  177.2/129.4 +35.1 167 -29.9

 3 10 20 00 00 09 37 07.9  +79 09 59  0.08637  13.1  175.8/129.4 +32.4 167 -17.9

 3 10 21 00 00 09 39 07.6  +79 05 19  0.08710  13.1  174.0/129.2 +29.8 168 - 5.5





軌道と残差:

 

(23187) 2000 PN9

Epoch 2006 Mar. 6.0 TT = JDT 2453800.5                  Nakano

M  16.59475              (2000.0)            P               Q

n   0.39283906     Peri.  293.55588     -0.23128166     -0.95008966

a   1.8464020      Node   164.43989     +0.88943755     -0.11928375

e   0.5896791      Incl.   51.30903     -0.39422030     +0.28827249

P   2.51           H   15.9           G   0.15           U   0





NAKANO

         **** Don't distribute anyone except personal use only ****

                (C) Copyright 2006 OAA/ComputingSection

write mail from CFAD0::NAKANO on 2006-02-19 21:58:50(JST).

 



戻ります。